Location: Oroua River
(40.4333°S, 175.4333°E)
Time: 09:30:34
(UTC+00:00)

MSX - Pass Details

Date: 01 October 2023
Orbit: 895 x 904 km, 99.0° (Epoch: 06 December)

Event Time Altitude Azimuth Distance (km) Brightness Sun altitude
Exits shadow 12:59:21 17° 178° (S) 2,168 6.3 -44.8°
Drops below altitude 10° 13:00:35 10° 183° (S) 2,612 6.8 -44.7°
Sets 13:03:06 0° 188° (S) 3,568 7.6 -44.6°
